LiveATC.Net - Listen to live air traffic control over the Internet! Contact LiveATC.net for advertising information

Find LiveATC Audio Streams


Airport/ARTCC Code

Frequency
(e.g., 124.400, 128.75)
Site-wide search

Browse LiveATC Feeds
LiveATC Coverage Map
Top 50 LiveATC Feeds
Bad Weather Areas

LiveATC FAQ
Offer a LiveATC Feed
Contact LiveATC.net
Press Inquiries

LiveATC on iPhone
LiveATC on Android

LiveATC Mobile
(Mobile browser)

ATC Audio Archives
Interesting Recordings

LiveATC Forums

Home Page
About LiveATC.net
Make a Donation
LiveATC Bookstore

Terms of Use
Privacy Policy

ATC/Radar Sites
U.S. ARTCC Freqs
Canadian Air Freqs

AIRMETs/SIGMETs

FAA Airport Status
Nat'l Airspace Status
Arrival Demand Charts


Server Software By:
Icecast.org
Liquidsoap

U.S. Feeds: Class B Airports | Class C Airports | Class D/Other Airports | ARTCC (Centers)
International Feeds: Canada | Europe | Oceania | Asia | South America | North & Central America | Africa
Misc Feeds: HF Feeds
All Feeds: All Feeds
Search by ICAO/IATA airport code:   (e.g., kbos, kjfk, lax, eham, etc.)


Currently Available Live Feeds: 1187
Status Updated: Fri Aug 28 2015 14:49:01 UTC


NOTICE

Unauthorized use prohibited. See LiveATC.net Terms of Service

ATC Facility
ATC Radio Frequencies

North and Central America Airport Feeds

 

BGGH AFIS (Archives)
Nuuk, Greenland

Feed Status: UP

Click on your favorite media player to listen:
Listen with WinAmp to BGGH AFIS  Listen with iTunes to BGGH AFIS  Click here to listen if using Real Player  Click here to listen if using Windows Media Player

Or simply listen in your browser:

Listen right in your browser(in browser, requires Flash)

BGGH 281350Z 18013G25KT 9999 FEW010 SCT019 BKN030 09/06 Q1007


Listeners: 2 out of 4286 total

Nuuk AFIS: 119.100

MMAN Tower (Archives)
Monterrey, Mexico

Feed Status: UP

Click on your favorite media player to listen:
Listen with WinAmp to MMAN Tower  Listen with iTunes to MMAN Tower  Click here to listen if using Real Player  Click here to listen if using Windows Media Player

Or simply listen in your browser:

Listen right in your browser(in browser, requires Flash)

MMAN 281340Z 30004KT 10SM SKC 21/16 A3006

MMAN Flight Activity (Flightaware)

Listeners: 2 out of 4286 total

Monterrey Tower: 118.600

MMCL Twr/App/Center
Culiacan, Mexico

Feed Status: DOWN
Offline since: 2015-08-07 23:10:03 UTC
MMCL 281341Z 00000KT 10SM SCT250 29/27 A2986 RMK 8/004 TCU DIST 2QUAD

Culiacan Approach: 119.750
Culiacan Tower: 118.500
Mazatlan Center (Sector 3 South): 128.000
Mazatlan Center (Sector 4): 124.400
Mazatlan Center (Sector 5): 124.200

MMCU Twr/App (Archives)
Chihuahua, Mexico

Feed Status: UP

Click on your favorite media player to listen:
Listen with WinAmp to MMCU Twr/App  Listen with iTunes to MMCU Twr/App  Click here to listen if using Real Player  Click here to listen if using Windows Media Player

Or simply listen in your browser:

Listen right in your browser(in browser, requires Flash)

MMCU 281240Z 18004KT 10SM BKN200 17/07 A3016 RMK 8/008

MMCU Flight Activity (Flightaware)

Listeners: 3 out of 4286 total

Chihuahua Approach: 121.000
Chihuahua Tower: 118.400

MMGL Twr/App (Archives)
Guadalajara, Mexico

Feed Status: UP

Click on your favorite media player to listen:
Listen with WinAmp to MMGL Twr/App  Listen with iTunes to MMGL Twr/App  Click here to listen if using Real Player  Click here to listen if using Windows Media Player

Or simply listen in your browser:

Listen right in your browser(in browser, requires Flash)

MMGL 281349Z 00000KT 8SM SKC 19/14 A3021 RMK CU

MMGL Flight Activity (Flightaware)

Listeners: 9 out of 4286 total

Guadalajara Approach: 120.800
Guadalajara Tower: 118.100

MMJA AFIS/App/Center (Archives)
Veracruz, Mexico

Feed Status: UP

Click on your favorite media player to listen:
Listen with WinAmp to MMJA AFIS/App/Center  Listen with iTunes to MMJA AFIS/App/Center  Click here to listen if using Real Player  Click here to listen if using Windows Media Player

Or simply listen in your browser:

Listen right in your browser(in browser, requires Flash)

MMJA Flight Activity (Flightaware)

Listeners: 2 out of 4286 total

Lencero AFIS: 123.300
Mexico Center: 126.600
Mexico Center: 128.000
Mexico Center: 128.500
Mexico Center: 126.300
Veracruz Approach: 120.400

MMMD Tower/Approach (Archives)
Merida, Mexico

Feed Status: UP

Click on your favorite media player to listen:
Listen with WinAmp to MMMD Tower/Approach   Listen with iTunes to MMMD Tower/Approach   Click here to listen if using Real Player  Click here to listen if using Windows Media Player

Or simply listen in your browser:

Listen right in your browser(in browser, requires Flash)

MMMD 281341Z 04006KT 5SM OVC010 25/24 A2997 RMK 8/5// HZY BINOVC E

MMMD Flight Activity (Flightaware)

Listeners: 6 out of 4286 total

Merida Approach: 121.200
Merida Tower: 118.300

MMMX App/Dep (Archives)
Mexico City, Mexico

Feed Status: UP

Click on your favorite media player to listen:
Listen with WinAmp to MMMX App/Dep  Listen with iTunes to MMMX App/Dep  Click here to listen if using Real Player  Click here to listen if using Windows Media Player

Or simply listen in your browser:

Listen right in your browser(in browser, requires Flash)

MMMX 281421Z 05003KT 8SM SCT020 OVC080 16/10 A3034 NOSIG RMK 8/57/ HZY

MMMX Flight Activity (Flightaware)

Listeners: 2 out of 4286 total

Mexico City Departure (East): 120.500
Mexico City Departure (West): 129.100
Terminal MEX (Approach): 129.600

MMMX Approach (Archives)
Mexico City, Mexico

Feed Status: UP

Click on your favorite media player to listen:
Listen with WinAmp to MMMX Approach  Listen with iTunes to MMMX Approach  Click here to listen if using Real Player  Click here to listen if using Windows Media Player

Or simply listen in your browser:

Listen right in your browser(in browser, requires Flash)

MMMX 281421Z 05003KT 8SM SCT020 OVC080 16/10 A3034 NOSIG RMK 8/57/ HZY

MMMX Flight Activity (Flightaware)

Listeners: 5 out of 4286 total

Mexico City Approach: 121.200

MMMY Tower/Approach (Archives)
Monterrey, Mexico

Feed Status: UP

Click on your favorite media player to listen:
Listen with WinAmp to MMMY Tower/Approach  Listen with iTunes to MMMY Tower/Approach  Click here to listen if using Real Player  Click here to listen if using Windows Media Player

Or simply listen in your browser:

Listen right in your browser(in browser, requires Flash)

MMMY 281348Z 33005KT 7SM SKC 19/16 A3001 RMK HZY

MMMY Flight Activity (Flightaware)

Listeners: 5 out of 4286 total

Monterrey Approach/Departure: 119.750
Monterrey Tower: 118.100

MMPB Tower (Archives)
Puebla, Mexico

Feed Status: UP

Click on your favorite media player to listen:
Listen with WinAmp to MMPB Tower  Listen with iTunes to MMPB Tower  Click here to listen if using Real Player  Click here to listen if using Windows Media Player

Or simply listen in your browser:

Listen right in your browser(in browser, requires Flash)

MMPB 281346Z 33003KT 8SM BKN020 12/10 A3033 RMK 8/500 HZY

MMPB Flight Activity (Flightaware)

Listeners: 5 out of 4286 total

Puebla Tower: 118.200

MMTC Torreon, Mexico (Archives)
Torreon, Mexico

Feed Status: UP

Click on your favorite media player to listen:
Listen with WinAmp to MMTC Torreon, Mexico  Listen with iTunes to MMTC Torreon, Mexico  Click here to listen if using Real Player  Click here to listen if using Windows Media Player

Or simply listen in your browser:

Listen right in your browser(in browser, requires Flash)

MMTC 281343Z 00000KT 10SM SKC 24/10 A3014 RMK HZY ISOL CI

MMTC Flight Activity (Flightaware)

Listeners: 4 out of 4286 total

Mazatlan Center: 124.200
Mazatlan Center: 124.400
Mazatlan Center: 128.000
Mexico Center: 123.900
Monterrey Center: 125.600
Monterrey Center: 125.425
Monterrey Center: 127.400
Torreon Approach: 119.500
Torreon Tower: 118.500

MMUN Twr/App/Center
Cancun, Mexico

Feed Status: DOWN
Offline since: 2015-08-27 13:16:04 UTC
MMMD 281341Z 04006KT 5SM OVC010 25/24 A2997 RMK 8/5// HZY BINOVC E

Cancun Approach: 123.400
Cancun Departure: 119.800
Cancun Tower (North): 118.100
Cancun Tower (South): 118.600
Merida Center: 125.200
Merida Center: 128.200

TNCM Tower/App (Archives)
Philipsburg, Saint Martin

Feed Status: UP

Click on your favorite media player to listen:
Listen with WinAmp to TNCM Tower/App  Listen with iTunes to TNCM Tower/App  Click here to listen if using Real Player  Click here to listen if using Windows Media Player

Or simply listen in your browser:

Listen right in your browser(in browser, requires Flash)

TNCM 281400Z 10010KT 9999 FEW019 29/25 Q1017 A3004 NOSIG

TNCM Flight Activity (Flightaware)

Listeners: 5 out of 4286 total

Juliana Approach (only when busy): 128.950
Juliana Tower (TNCM): 118.700

Bermuda Tower/Ground (Archives)
Hamilton, Bermuda

Feed Status: UP

Click on your favorite media player to listen:
Listen with WinAmp to Bermuda Tower/Ground  Listen with iTunes to Bermuda Tower/Ground  Click here to listen if using Real Player  Click here to listen if using Windows Media Player

Or simply listen in your browser:

Listen right in your browser(in browser, requires Flash)

TXKF 281355Z 21007KT 9999 FEW017TCU SCT300 30/25 Q1021 RMK TCU DSNT NW+SE 

TXKF Flight Activity (Flightaware)

Listeners: 2 out of 4286 total

Bermuda CTAF: 122.800
Bermuda Ground/Clearance: 124.500
Bermuda Tower: 118.100

ZNY Bermuda Sector (Archives)
Hamilton, Bermuda

Feed Status: UP

Click on your favorite media player to listen:
Listen with WinAmp to ZNY Bermuda Sector  Listen with iTunes to ZNY Bermuda Sector  Click here to listen if using Real Player  Click here to listen if using Windows Media Player

Or simply listen in your browser:

Listen right in your browser(in browser, requires Flash)

TXKF 281355Z 21007KT 9999 FEW017TCU SCT300 30/25 Q1021 RMK TCU DSNT NW+SE 

TXKF Flight Activity (Flightaware)

Listeners: 2 out of 4286 total

New York Approach (Bermuda Sector) : 119.100
New York Center (Bermuda Sector): 128.500

MGGT Gnd/Twr (Archives)
Guatemala City, Guatemala

Feed Status: UP

Click on your favorite media player to listen:
Listen with WinAmp to MGGT Gnd/Twr  Listen with iTunes to MGGT Gnd/Twr  Click here to listen if using Real Player  Click here to listen if using Windows Media Player

Or simply listen in your browser:

Listen right in your browser(in browser, requires Flash)

MGGT 281400Z 36008KT 9999 SCT014 20/17 Q1025 A3027 FEW200

MGGT Flight Activity (Flightaware)

Listeners: 2 out of 4286 total

Guatemala City Ground: 121.900
Guatemala City Tower: 118.100

MGGT Ground (Archives)
Guatemala City, Guatemala

Feed Status: UP

Click on your favorite media player to listen:
Listen with WinAmp to MGGT Ground  Listen with iTunes to MGGT Ground  Click here to listen if using Real Player  Click here to listen if using Windows Media Player

Or simply listen in your browser:

Listen right in your browser(in browser, requires Flash)

MGGT 281400Z 36008KT 9999 SCT014 20/17 Q1025 A3027 FEW200

MGGT Flight Activity (Flightaware)

Listeners: 3 out of 4286 total

Guatemala City Ground: 121.900

MGGT Tower (Archives)
Guatemala City, Guatemala

Feed Status: UP

Click on your favorite media player to listen:
Listen with WinAmp to MGGT Tower  Listen with iTunes to MGGT Tower  Click here to listen if using Real Player  Click here to listen if using Windows Media Player

Or simply listen in your browser:

Listen right in your browser(in browser, requires Flash)

MGGT 281400Z 36008KT 9999 SCT014 20/17 Q1025 A3027 FEW200

MGGT Flight Activity (Flightaware)

Listeners: 3 out of 4286 total

Guatemala City Tower: 118.100

MHTG Gnd/Twr/App/Ctr/Ops (Archives)
Tegucigalpa, Honduras

Feed Status: UP

Click on your favorite media player to listen:
Listen with WinAmp to MHTG Gnd/Twr/App/Ctr/Ops  Listen with iTunes to MHTG Gnd/Twr/App/Ctr/Ops  Click here to listen if using Real Player  Click here to listen if using Windows Media Player

Or simply listen in your browser:

Listen right in your browser(in browser, requires Flash)

MHTG 281400Z 00000KT 9999 FEW028 23/18 Q1018 A3006 NOSIG

MHTG Flight Activity (Flightaware)

Listeners: 5 out of 4286 total

American Airlines Ops: 130.700
ARINC ACARS: 131.550
Cenamer Center: 123.900
Cenamer Center: 124.300
Cenamer Center: 124.100
CMP Ops: 129.925
Continental Airlines Ops: 129.925
FAH Ground: 122.900
Taca Ops: 131.300
Taca Ops Sal: 130.300
Tecnologias Unidas: 133.000
Tegucigalpa RDO: 126.700
Toncontin Approach: 119.100
Toncontin Ground: 121.900
Toncontin Tower: 118.700

MPTO Twr/App/Control (Archives)
Panama City, Panama

Feed Status: UP

Click on your favorite media player to listen:
Listen with WinAmp to MPTO Twr/App/Control  Listen with iTunes to MPTO Twr/App/Control  Click here to listen if using Real Player  Click here to listen if using Windows Media Player

Or simply listen in your browser:

Listen right in your browser(in browser, requires Flash)

MPTO 281400Z 00000KT 9000 FEW020 31/24 Q1010 NOSIG

MPTO Flight Activity (Flightaware)

Listeners: 2 out of 4286 total

Panama Approach: 121.200
Panama Control: 123.300
Panama Control: 133.300
Panama Departure: 119.700
Panama Tower: 118.100

MROC Del/Gnd/Twr/App/Center/Misc (Archives)
San Jose, Costa Rica

Feed Status: UP

Click on your favorite media player to listen:
Listen with WinAmp to MROC Del/Gnd/Twr/App/Center/Misc  Listen with iTunes to MROC Del/Gnd/Twr/App/Center/Misc  Click here to listen if using Real Player  Click here to listen if using Windows Media Player

Or simply listen in your browser:

Listen right in your browser(in browser, requires Flash)

MROC 281400Z 11009KT CAVOK 25/15 A3000 NOSIG

MROC Flight Activity (Flightaware)

Listeners: 9 out of 4286 total

ADS: 131.000
Aerodespacho Ops: 135.000
Central American Center (CENAMER Control): 124.100
Coco Center (Control over CR Airspace): 119.600
Coco Clearance Delivery: 121.300
Coco Ground: 121.900
Coco Terminal Control: 120.500
Coco Tower: 118.600
Coco UNICOM: 126.800
SYQ Ground: 121.700
SYQ Tower: 118.300

MSSS Tower (Archives)
San Salvador, El Salvador

Feed Status: UP

Click on your favorite media player to listen:
Listen with WinAmp to MSSS Tower  Listen with iTunes to MSSS Tower  Click here to listen if using Real Player  Click here to listen if using Windows Media Player

Or simply listen in your browser:

Listen right in your browser(in browser, requires Flash)

MSSS 281350Z 35002KT CAVOK 24/21 Q1015 A2998

MSSS Flight Activity (Flightaware)

Listeners: out of 4286 total

El Salvador Approach: 119.900
Ilopango Approach: 119.500
Ilopango Ground: 121.900
Ilopango Tower: 118.300

Please make a donation to help us keep growing!